This is the latest recevied weather packets stored in our database for station/object SR1WXW. If no packets are shown the sender has not sent any weather packets the latest 10 day(s).
| Time | Temp. | Humidity | Pressure | Rain* | Wind** | Luminosity | Snow |
|---|---|---|---|---|---|---|---|
| 1778053679 | 7.22° C | 92% | 1000.8 hPa | 7.11 mm | - | - | - |
| 1778053379 | 7.22° C | 92% | 1000.9 hPa | 6.1 mm | - | - | - |
| 1778053079 | 7.22° C | 92% | 1000.9 hPa | 5.59 mm | - | - | - |
| 1778052779 | 7.22° C | 92% | 1000.9 hPa | 4.57 mm | - | - | - |
| 1778052479 | 7.22° C | 92% | 1000.8 hPa | 4.57 mm | - | - | - |
| 1778052179 | 7.22° C | 92% | 1001 hPa | 4.06 mm | - | - | - |
| 1778051879 | 7.22° C | 92% | 1001 hPa | 3.56 mm | - | - | - |
| 1778051579 | 7.22° C | 92% | 1000.9 hPa | 3.56 mm | - | - | - |
| 1778051279 | 7.22° C | 92% | 1000.8 hPa | 4.06 mm | - | - | - |
| 1778050979 | 7.22° C | 92% | 1000.8 hPa | 3.56 mm | - | - | - |
| 1778050679 | 7.22° C | 92% | 1000.8 hPa | 3.56 mm | - | - | - |
| 1778050379 | 7.22° C | 92% | 1000.9 hPa | 3.56 mm | - | - | - |
| 1778050079 | 7.22° C | 92% | 1001 hPa | 3.56 mm | - | - | - |
| 1778049779 | 7.22° C | 92% | 1001.1 hPa | 3.05 mm | - | - | - |
| 1778049479 | 7.22° C | 92% | 1000.9 hPa | 3.56 mm | - | - | - |
| 1778049179 | 7.22° C | 92% | 1000.9 hPa | 3.56 mm | - | - | - |
| 1778048879 | 7.22° C | 92% | 1000.9 hPa | 3.56 mm | - | - | - |
| 1778048579 | 7.22° C | 92% | 1000.9 hPa | 3.56 mm | - | - | - |
| 1778048279 | 7.22° C | 92% | 1001.1 hPa | 3.56 mm | - | - | - |
| 1778047979 | 7.22° C | 92% | 1001.1 hPa | 3.56 mm | - | - | - |
| 1778047679 | 7.22° C | 92% | 1001.1 hPa | 3.56 mm | - | - | - |
| 1778047379 | 7.22° C | 92% | 1001.1 hPa | 3.05 mm | - | - | - |
| 1778047079 | 7.22° C | 92% | 1001.2 hPa | 3.05 mm | - | - | - |
| 1778046779 | 7.22° C | 92% | 1001.3 hPa | 3.56 mm | - | - | - |
| 1778046479 | 7.22° C | 92% | 1001.4 hPa | 3.56 mm | - | - | - |
* Rain latest hour (hover to see other rain measurements)
** Current wind speed in m/s (hover to see current wind gust speed)